• In Hungary
  • List of Countries
  • For 7 days
  • Water Temperature
  • Satellite Maps
  • Weather Map
  • News
  • Weather Widgets
  • user-avatar
    Login

    Hourly Weather Sikasso

    Today, 20 September, Thursday

    Time Temperature Precipitation Wind Pressure Humidity
    00:00 +26°C° 0 mm 1 mps 726 mmHg 86%
    01:00 +26°C° 1 mm 1 mps 726 mmHg 87%
    02:00 +26°C° 1 mm 1 mps 725 mmHg 89%
    03:00 +26°C° 1 mm 1 mps 725 mmHg 90%
    04:00 +25°C° 0 mm 1 mps 725 mmHg 90%
    05:00 +25°C° 0 mm 1 mps 726 mmHg 91%
    06:00 +25°C° 0 mm 1 mps 726 mmHg 92%
    07:00 +26°C° 0 mm 1 mps 726 mmHg 87%
    08:00 +28°C° 0 mm 1 mps 727 mmHg 83%
    09:00 +30°C° 0 mm 1 mps 727 mmHg 78%
    10:00 +31°C° 0 mm 2 mps 727 mmHg 70%
    11:00 +34°C° 0 mm 2 mps 727 mmHg 62%
    12:00 +35°C° 0 mm 2 mps 727 mmHg 54%
    13:00 +36°C° 0 mm 2 mps 726 mmHg 52%
    14:00 +36°C° 0 mm 2 mps 725 mmHg 51%
    15:00 +36°C° 0 mm 2 mps 724 mmHg 50%
    16:00 +35°C° 0 mm 2 mps 724 mmHg 56%
    17:00 +32°C° 0 mm 2 mps 724 mmHg 62%
    18:00 +31°C° 0 mm 1 mps 724 mmHg 68%
    19:00 +30°C° 0 mm 1 mps 724 mmHg 69%
    20:00 +29°C° 0 mm 1 mps 725 mmHg 71%
    21:00 +28°C° 0 mm 1 mps 725 mmHg 72%
    22:00 +28°C° 0 mm 1 mps 725 mmHg 74%
    23:00 +28°C° 0 mm 1 mps 726 mmHg 75%

    Tomorrow, 21 September, Friday

    Time Temperature Precipitation Wind Pressure Humidity
    00:00 +27°C° 0 mm 1 mps 726 mmHg 77%
    01:00 +27°C° 0.1 mm 1 mps 725 mmHg 80%
    02:00 +26°C° 0.1 mm 1 mps 725 mmHg 83%
    03:00 +26°C° 0.1 mm 2 mps 725 mmHg 87%
    04:00 +26°C° 0.3 mm 2 mps 725 mmHg 88%
    05:00 +25°C° 0.3 mm 2 mps 725 mmHg 90%
    06:00 +25°C° 0.3 mm 2 mps 725 mmHg 92%
    07:00 +26°C° 0 mm 2 mps 726 mmHg 87%
    08:00 +28°C° 0 mm 2 mps 726 mmHg 82%
    09:00 +29°C° 0 mm 3 mps 726 mmHg 77%
    10:00 +31°C° 0 mm 3 mps 726 mmHg 70%
    11:00 +32°C° 0 mm 2 mps 726 mmHg 63%
    12:00 +35°C° 0 mm 2 mps 726 mmHg 56%
    13:00 +35°C° 0 mm 2 mps 725 mmHg 54%
    14:00 +36°C° 0 mm 2 mps 724 mmHg 53%
    15:00 +36°C° 0 mm 2 mps 724 mmHg 51%
    16:00 +35°C° 0 mm 2 mps 724 mmHg 58%
    17:00 +32°C° 0 mm 1 mps 724 mmHg 65%
    18:00 +31°C° 0 mm 1 mps 724 mmHg 71%
    19:00 +30°C° 0 mm 1 mps 724 mmHg 73%
    20:00 +29°C° 0 mm 1 mps 725 mmHg 74%
    21:00 +28°C° 0 mm 1 mps 725 mmHg 76%
    22:00 +28°C° 0.3 mm 1 mps 725 mmHg 79%
    23:00 +27°C° 0.3 mm 1 mps 725 mmHg 82%

    Day after tomorrow, 22 September, Saturday

    Time Temperature Precipitation Wind Pressure Humidity
    00:00 +26°C° 0.3 mm 2 mps 725 mmHg 85%
    01:00 +26°C° 0.7 mm 1 mps 725 mmHg 87%
    02:00 +25°C° 0.7 mm 1 mps 725 mmHg 90%
    03:00 +25°C° 0.7 mm 1 mps 725 mmHg 92%
    04:00 +25°C° 1.3 mm 1 mps 725 mmHg 92%
    05:00 +25°C° 1.3 mm 1 mps 726 mmHg 92%
    06:00 +25°C° 1.3 mm 1 mps 726 mmHg 91%
    07:00 +26°C° 0 mm 1 mps 727 mmHg 87%
    08:00 +27°C° 0 mm 1 mps 727 mmHg 82%
    09:00 +29°C° 0 mm 1 mps 728 mmHg 77%
    10:00 +30°C° 0 mm 1 mps 727 mmHg 71%
    11:00 +31°C° 0 mm 2 mps 727 mmHg 66%
    12:00 +32°C° 0 mm 2 mps 727 mmHg 60%
    13:00 +32°C° 0 mm 2 mps 726 mmHg 59%
    14:00 +32°C° 0 mm 1 mps 725 mmHg 58%
    15:00 +33°C° 0 mm 1 mps 725 mmHg 57%
    16:00 +31°C° 0 mm 1 mps 724 mmHg 62%
    17:00 +28°C° 0 mm 0 mps 724 mmHg 66%
    18:00 +27°C° 0 mm 0 mps 724 mmHg 70%
    19:00 +27°C° 0 mm 0 mps 725 mmHg 72%
    20:00 +26°C° 0 mm 0 mps 726 mmHg 74%
    21:00 +25°C° 0 mm 0 mps 726 mmHg 76%
    22:00 +25°C° 0 mm 0 mps 726 mmHg 78%
    23:00 +24°C° 0 mm 0 mps 726 mmHg 79%

    23 September, Sunday

    Time Temperature Precipitation Wind Pressure Humidity
    00:00 +24°C° 0 mm 0 mps 727 mmHg 80%
    01:00 +26°C° 0 mm 1 mps 726 mmHg 80%
    02:00 +26°C° 0 mm 1 mps 726 mmHg 81%
    03:00 +25°C° 0 mm 1 mps 725 mmHg 82%
    04:00 +25°C° 0.2 mm 1 mps 725 mmHg 84%
    05:00 +25°C° 0.2 mm 1 mps 726 mmHg 87%
    06:00 +24°C° 0.2 mm 1 mps 726 mmHg 89%
    07:00 +26°C° 0 mm 2 mps 726 mmHg 84%
    08:00 +28°C° 0 mm 2 mps 727 mmHg 79%
    09:00 +29°C° 0 mm 2 mps 728 mmHg 75%
    10:00 +32°C° 0.1 mm 1 mps 727 mmHg 67%
    11:00 +34°C° 0.1 mm 1 mps 727 mmHg 59%
    12:00 +36°C° 0.1 mm 1 mps 727 mmHg 50%
    13:00 +36°C° 0 mm 1 mps 726 mmHg 49%
    14:00 +36°C° 0 mm 1 mps 725 mmHg 48%
    15:00 +36°C° 0 mm 1 mps 725 mmHg 46%
    16:00 +34°C° 0 mm 1 mps 725 mmHg 52%
    17:00 +33°C° 0 mm 1 mps 725 mmHg 58%
    18:00 +32°C° 0 mm 1 mps 724 mmHg 64%
    19:00 +31°C° 0.1 mm 1 mps 725 mmHg 65%
    20:00 +30°C° 0.1 mm 1 mps 725 mmHg 66%
    21:00 +27°C° 0.1 mm 0 mps 726 mmHg 67%
    22:00 +28°C° 2.1 mm 2 mps 726 mmHg 73%
    23:00 +27°C° 2.1 mm 3 mps 726 mmHg 79%

    24 September, Monday

    Time Temperature Precipitation Wind Pressure Humidity
    00:00 +26°C° 2.1 mm 4 mps 726 mmHg 85%
    01:00 +26°C° 0.7 mm 3 mps 726 mmHg 87%
    02:00 +25°C° 0.7 mm 3 mps 726 mmHg 89%
    03:00 +25°C° 0.7 mm 2 mps 726 mmHg 91%
    04:00 +25°C° 0 mm 2 mps 726 mmHg 91%
    05:00 +25°C° 0 mm 1 mps 726 mmHg 90%
    06:00 +25°C° 0 mm 1 mps 726 mmHg 90%
    07:00 +26°C° 0 mm 1 mps 726 mmHg 87%
    08:00 +27°C° 0 mm 1 mps 727 mmHg 85%
    09:00 +28°C° 0 mm 1 mps 727 mmHg 82%
    10:00 +30°C° 0 mm 1 mps 727 mmHg 73%
    11:00 +32°C° 0 mm 1 mps 727 mmHg 64%
    12:00 +34°C° 0 mm 1 mps 727 mmHg 54%
    13:00 +34°C° 0 mm 1 mps 726 mmHg 52%
    14:00 +35°C° 0 mm 1 mps 725 mmHg 49%
    15:00 +36°C° 0 mm 1 mps 725 mmHg 47%
    16:00 +34°C° 0 mm 1 mps 725 mmHg 52%
    17:00 +33°C° 0 mm 1 mps 725 mmHg 58%
    18:00 +29°C° 0 mm 0 mps 725 mmHg 64%
    19:00 +30°C° 0.6 mm 1 mps 725 mmHg 68%
    20:00 +29°C° 0.6 mm 1 mps 726 mmHg 71%
    21:00 +28°C° 0.6 mm 1 mps 726 mmHg 75%
    22:00 +25°C° 1.4 mm 0 mps 726 mmHg 79%
    23:00 +25°C° 1.4 mm 0 mps 726 mmHg 83%

    25 September, Tuesday

    Time Temperature Precipitation Wind Pressure Humidity
    00:00 +24°C° 1.4 mm 0 mps 726 mmHg 87%
    01:00 +24°C° 0.6 mm 0 mps 726 mmHg 88%
    02:00 +24°C° 0.6 mm 0 mps 726 mmHg 89%
    03:00 +24°C° 0.6 mm 0 mps 725 mmHg 90%
    04:00 +25°C° 0 mm 1 mps 725 mmHg 90%
    05:00 +25°C° 0 mm 1 mps 726 mmHg 90%
    06:00 +25°C° 0 mm 1 mps 726 mmHg 90%
    07:00 +27°C° 0 mm 1 mps 726 mmHg 85%
    08:00 +28°C° 0 mm 1 mps 727 mmHg 80%
    09:00 +30°C° 0 mm 1 mps 727 mmHg 75%
    10:00 +32°C° 0 mm 1 mps 727 mmHg 67%
    11:00 +33°C° 0 mm 1 mps 727 mmHg 60%
    12:00 +35°C° 0 mm 1 mps 726 mmHg 53%
    13:00 +35°C° 0 mm 1 mps 725 mmHg 52%
    14:00 +36°C° 0 mm 1 mps 725 mmHg 51%
    15:00 +36°C° 0 mm 1 mps 724 mmHg 50%
    16:00 +34°C° 0.2 mm 1 mps 724 mmHg 57%
    17:00 +33°C° 0.2 mm 1 mps 724 mmHg 64%
    18:00 +31°C° 0.2 mm 1 mps 724 mmHg 71%
    19:00 +30°C° 1.6 mm 1 mps 724 mmHg 75%
    20:00 +29°C° 1.6 mm 1 mps 724 mmHg 80%
    21:00 +28°C° 1.6 mm 1 mps 725 mmHg 84%
    22:00 +28°C° 0.3 mm 1 mps 725 mmHg 84%
    23:00 +28°C° 0.3 mm 1 mps 725 mmHg 84%
    Show more